This demonstration page uses our WeatherBlox Daily Observations layout. Learn more.

Left ArrowRight Arrow

47.50024, -111.30081

Hourly Observations for February 1, 2018

Temp ( °F °C ) Dew Point ( °F °C ) Humidity (%) Winds ( mph kmh ) Pressure ( in mb ) Visibility ( mi km ) Precip ( " mm )
12:53 am 00:53 Cloudy 7 -13.9 3 -16.1 84 84 E 7 11 30.37 1028 10 16 0.00 0.00
1:53 am 01:53 Cloudy 7 -13.9 3 -16.1 84 84 ENE 6 9 30.37 1029 10 16 0.00 0.00
2:53 am 02:53 Cloudy 7 -13.9 3 -16.1 84 84 E 6 9 30.38 1029 10 16 0.00 0.00
3:53 am 03:53 Cloudy 7 -13.9 3 -16.1 84 84 SE 6 9 30.38 1029 10 16 0.00 0.00
4:53 am 04:53 Cloudy 8 -13.3 4 -15.6 83 83 Calm 30.37 1029 10 16 0.00 0.00
5:31 am 05:31 Cloudy 9 -12.8 7 -13.9 92 92 SSW 3 6 30.48 1032 10 16 0.00 0.00
5:53 am 05:53 Cloudy with Mist and Fog 9 -12.8 7 -13.9 92 92 SW 5 7 30.39 1029 3 5 0.00 0.00
6:02 am 06:02 Cloudy with Mist and Fog 9 -12.8 7 -13.9 92 92 SW 5 7 30.48 1032 3 4 0.00 0.00
6:11 am 06:11 Cloudy with Mist and Fog 9 -12.8 7 -13.9 92 92 S 3 6 30.48 1032 1 2 0.00 0.00
6:37 am 06:37 Cloudy with Mist and Fog 8 -13.3 5 -15 87 87 Calm 30.48 1032 2 3 0.00 0.03
6:45 am 06:45 Cloudy with Mist and Fog 9 -12.8 7 -13.9 92 92 S 3 6 30.48 1032 1 2 0.00 0.03
6:53 am 06:53 Mostly Cloudy with Freezing Fog 9 -12.8 7 -13.9 92 92 S 3 6 30.38 1029 1 1 0.00 0.03
7:07 am 07:07 Cloudy with Mist and Fog 8 -13.3 5 -15 87 87 SSE 3 6 30.48 1032 3 4 0.00 0.00
7:48 am 07:48 Partly Cloudy 7 -14 3 -16 85 85 Calm 30.50 1033 2 3 0.00 0.00
7:53 am 07:53 Mostly Sunny 6 -14.4 2 -16.7 83 83 Calm 30.38 1029 2 3 0.00 0.00
8:06 am 08:06 Sunny with Mist and Fog 8 -13.3 5 -15 87 87 Calm 30.48 1032 5 8 0.00 0.00
8:53 am 08:53 Mostly Cloudy 12 -11.1 8 -13.3 84 84 WSW 5 7 30.37 1029 10 16 0.00 0.00
9:53 am 09:53 Mostly Cloudy 18 -7.8 14 -10 84 84 SW 8 13 30.36 1028 10 16 0.00 0.00
10:53 am 10:53 Sunny 29 -1.7 17 -8.3 61 61 SSW 12 19 30.32 1027 10 16 0.00 0.00
11:53 am 11:53 Partly Cloudy 33 0.6 16 -8.9 49 49 SSW 12 19 30.29 1026 10 16 0.00 0.00
12:53 pm 12:53 Mostly Cloudy 37 2.8 14 -10 39 39 SW 17 28 30.25 1024 10 16 0.00 0.00
1:53 pm 13:53 Cloudy 35 1.7 14 -10 42 42 SW 16 26 30.24 1024 10 16 0.00 0.00
2:53 pm 14:53 Cloudy 35 1.7 14 -10 42 42 SW 28 44 30.22 1023 10 16 0.00 0.00
3:53 pm 15:53 Cloudy 35 1.7 15 -9.4 44 44 SW 21 33 30.24 1024 10 16 0.00 0.00
4:53 pm 16:53 Cloudy 34 1.1 16 -8.9 48 48 SW 17 28 30.24 1024 10 16 0.00 0.00
5:53 pm 17:53 Cloudy 33 0.6 17 -8.3 52 52 SW 15 24 30.25 1024 10 16 0.00 0.00
6:53 pm 18:53 Cloudy 32 0 18 -7.8 56 56 SW 10 17 30.26 1025 10 16 0.00 0.00
7:53 pm 19:53 Mostly Cloudy 28 -2.2 17 -8.3 63 63 SW 8 13 30.29 1026 10 16 0.00 0.00
8:53 pm 20:53 Clear 27 -2.8 18 -7.8 69 69 SW 8 13 30.27 1025 10 16 0.00 0.00
9:53 pm 21:53 Partly Cloudy 32 0 20 -6.7 61 61 SW 10 17 30.23 1024 10 16 0.00 0.00
10:53 pm 22:53 Cloudy 33 0.6 20 -6.7 58 58 SW 15 24 30.18 1022 10 16 0.00 0.00
11:53 pm 23:53 Cloudy 34 1.1 21 -6.1 59 59 SW 17 28 30.16 1021 10 16 0.00 0.00

Powered by AerisWeather